Regional Weather Roundup
Issued by NWS Wakefield, VA

Home | Current Version | Previous Version | Graphics & Text | Print | Product List | Glossary On
Versions: 1 2 3 4 5 6 7 8 9 10 11 12 13 14 15 16 17 18 19 20 21 22 23 24 25 26 27
000
ASUS41 KAKQ 171815
RWRAKQ

REGIONAL WEATHER ROUNDUP
NATIONAL WEATHER SERVICE WAKEFIELD VA
200 PM EDT THU AUG 17 2017

Note: "fair" indicates few or no clouds below 12,000 feet with no
significant weather and/or obstructions to visibility. * = Denotes
station may not report precipitation (e.g., rain,snow,etc.),
thunder or fog.

VAZ042-051-052>054-056-171900-
NORTHERN VIRGINIA

CITY           SKY/WX    TMP DP  RH WIND       PRES   REMARKS
WASH NATIONAL  PTSUNNY   87  77  72 S9        29.98F HX  99
DULLES         PTSUNNY   87  75  67 SW6       29.97F HX  96
FORT BELVOIR   MOSUNNY   87  74  65 SW6       29.97F HX  95
QUANTICO       LGT RAIN  86  80  82 MISG      29.98F HX 101
FREDERICKSBRG* MOSUNNY   89  74  61 S10       29.97F HX  97
STAFFORD*      PTSUNNY   87  73  63 S8        30.02F
WARRENTON      CLOUDY    89  73  59 S9        29.97F HX  97
CULPEPER*      MOSUNNY   89  77  68 S9        29.98F HX 101
MANASSAS*      PTSUNNY   88  78  72 S8        29.98F HX 101
LEESBURG*      MOSUNNY   90  77  66 SE5       29.99F HX 102
WINCHESTER     PTSUNNY   84  72  65 SE7       29.99F
FRONT ROYAL*   CLEAR     88  73  62 SW3       29.98F HX  96
LURAY*         PTCLDY    90  70  51 SW8       29.98F HX  95
$$

VAZ048-049-060>072-079>083-171900-
CENTRAL AND SOUTH CENTRAL VIRGINIA

CITY           SKY/WX    TMP DP  RH WIND       PRES   REMARKS
RICHMOND       LGT RAIN  79  73  82 S15G24    30.02S
CHESTERFIELD*  MOCLDY    83  76  79 S9        30.02F
PETERSBURG*    LGT RAIN  80  70  71 S8        30.03F
HANOVER        MOSUNNY   87  71  58 S10G20    30.02F
TAPPAHANNOCK*  SUNNY     90  66  45 SE8       30.01S
QUINTON*       CLOUDY    84  76  75 SE6       30.01S
CHARLOTTSVILLE MOSUNNY   90  72  55 S7        29.98F HX  97
GORDONSVILLE*  MOCLDY    88  76  69 SE8       29.98F HX  99
ORANGE*        PTSUNNY   86  73  66 S7        29.98F
LOUISA*        MOSUNNY   88  73  62 S9        29.99F HX  96
BUMPASS*       FAIR      86  74  67 S9G18     30.00F
FARMVILLE*     LGT RAIN  84  72  67 E7        29.98F
CREWE*         MOCLDY    82  72  71 S6        30.01F
FORT PICKETT*  FAIR     N/A N/A N/A SE5       30.03F
CHASE CITY*    FAIR      85  79  83 SE5       30.01F HX  98
CLARKSVILLE*   CLOUDY    79  79 100 E8        30.00F
SOUTH HILL*    MOSUNNY   80  77  90 E3        30.07F
LAWRENCEVILLE* CLOUDY    75  74  97 E5        30.03F
EMPORIA*         N/A     73  72  94 NW6       30.05F
$$

VAZ088>098-171900-
SOUTHEAST VIRGINIA

CITY           SKY/WX    TMP DP  RH WIND       PRES   REMARKS
NORFOLK        PTSUNNY   90  71  53 S6        30.02S HX  96
VIRGINIA BEACH MOSUNNY   86  71  60 SE7       30.02S
NORFOLK NAVAL  MOSUNNY   91  68  46 SE6       30.03S HX  95
WEST POINT*    CLOUDY    87  68  52 SE8       30.03S
SALUDA*        CLOUDY    86  76  72 SE6       30.01F HX  95
NEWPORT NEWS   CLOUDY    88  67  49 S10       30.02S
LANGLEY AFB    PTSUNNY   88  73  59 E10       30.02S HX  95
FORT EUSTIS    CLOUDY    91  72  53 SE8       29.99F HX  98
WILLIAMSBURG*  CLOUDY    91  73  55 S3        30.02F HX 100
HR EXEC AP*    FAIR      90  70  51 S9G16     29.99S HX  95
FRANKLIN*      MOSUNNY   88  71  57 SE8       30.02F
US460-WAKEFLD  PTSUNNY   87  73  62 SW5       30.02F
$$

VAZ020-022-025-037-045-171900-
WEST CENTRAL AND SOUTHWEST VIRGINIA

CITY           SKY/WX    TMP DP  RH WIND       PRES   REMARKS
STAUNTON*      MOSUNNY   87  71  58 SW3       30.03F
WAYNESBORO*    CLEAR     87  71  59 SW5       30.03F
HOT SPRINGS VA MOSUNNY   77  61  57 CALM      30.18F
LYNCHBURG      MOSUNNY   89  69  51 CALM      30.01F
DANVILLE       MOSUNNY   90  73  57 VRB6      29.99F HX  98
SOUTH BOSTON*  FAIR      90  73  57 SW3       29.99F HX  98
MARTINSVILLE   SUNNY     90  71  54 SW3       30.04F HX  96
ROANOKE        MOSUNNY   90  70  51 NW7       30.03F HX  95
BLACKSBURG     PTSUNNY   85  71  64 NW5       30.11F
DUBLIN*        MOSUNNY   86  72  61 SW8G16    30.09F
MARION*        MOSUNNY   83  65  54 SW10G16   30.14F
HILLSVILLE*    HVY RAIN  71  67  85 SW3       30.13F
RICHLANDS*     FAIR      81  69  67 W8        30.13F
WISE*          SUNNY     81  68  65 SW13G20   30.13F
ABINGDON*      PTSUNNY   84  73  70 W9        30.09F
$$

MDZ021>025-VAZ099-100-171900-
SOUTHERN MARYLAND AND THE DELMARVA PENINSULA

CITY           SKY/WX    TMP DP  RH WIND       PRES   REMARKS
PATUXENT RIVER PTSUNNY   83  76  79 SE14G20   30.00F
BAY BRIDGE APT MOSUNNY   90  73  58 S9        29.99F HX  98
LEONARDTOWN    CLOUDY    86  73  66 SE9       30.01F
DOVER          PTSUNNY   82  72  69 E10       29.98F
GEORGETOWN     SUNNY     86  71  60 S9        30.01F
EASTON         MOSUNNY   90  72  55 S9        30.03F HX  96
CAMBRIDGE      PTSUNNY   84  72  65 S8G14     30.01S
SALISBURY      SUNNY     84  74  71 SE10      30.02F
OCEAN CITY     SUNNY     83  70  64 SW7       30.03F
WALLOPS ISLAND PTSUNNY   82  77  84 SE10      30.04S
ACCOMACK*      SUNNY     84  74  71 SE10      30.03S
$$

NCZ012>017-030>032-171900-
NORTH CENTRAL AND EASTERN NORTH CAROLINA

CITY           SKY/WX    TMP DP  RH WIND       PRES   REMARKS
ROANOKE RAPIDS FAIR      86  77  74 CALM      30.01F HX  97
RALEIGH        MOSUNNY   93  77  59 S7        29.99F HX 107
ELIZABETH CITY SUNNY     88  68  51 S7        30.04S
AHOSKIE*         N/A     87  74  66 S5        30.02F HX  95
EDENTON*       SUNNY     90  71  54 SE7       30.04F HX  96
CURRITUCK*     SUNNY     87  46  24 E7        30.04S
KILL DEVIL HLS SUNNY     82  72  71 CALM      30.04F
MANTEO         SUNNY     83  73  72 E7        30.05F
CAPE HATTERAS  SUNNY     86  74  67 SE9       30.05F
TARBORO*       NOT AVBL
GOLDSBORO      NOT AVBL
WASHINGTON     SUNNY     90  74  58 S5        30.02F HX  99
GREENVILLE     MOSUNNY   90  73  58 S7        30.03F HX  98
NEW BERN       MOSUNNY   87  77  72 SE7       30.02F HX  99
WILMINGTON     CLOUDY    78  75  90 E8        30.03F THUNDER
$$

VAZ048-171900-
ELSEWHERE

CITY           SKY/WX    TMP DP  RH WIND       PRES   REMARKS
HARRISBURG PA  PTSUNNY   85  72  65 SE6       29.98F
BALTIMORE      MOSUNNY   85  75  72 CALM      29.97F
ANNAPOLIS      CLOUDY    84  76  76 SE12      29.98F
ANDREWS AFB    MOSUNNY   87  74  65 S10       29.98F HX  96
PHILADELPHIA   MOSUNNY   87  66  49 S7        30.00F
HENDERSON NC   MOSUNNY   86  75  69 NE10      30.00F HX  96
GREENSBORO     MOSUNNY   90  74  59 SW7       30.01F HX  99
ROCKY MOUNT    MOSUNNY   90  77  65 SE8       30.00F HX 103
$$

VAZ100-171900-
MARINE

STATION/POSITION TIME  TEMP    WIND        PRES    WAVE   SWELL
                       AIR SEA DIR/SP/G            HT/PER HT/PER
                 (UTC) (F)     (DEG/KT/KT) (MB)    (FT/S) (FT/S)
BRANDYWINE LGT   1742   78     160/ 11/ 12 1016.9F
CAPE MAY NJ      1748   81 79  180/  5/  8 1016.1F
LEWES DE         1748   82 77  160/  5/  9 1016.1F
15NM E FENWICK I 1750   77 78  200/  4/  4 1017.3F   2/ 7   2/ 7
OCEAN-CITY-INLET 1748   80 78  210/  4/  5 1017.1F
WACHAPREAGUE VA  1748   82 83  170/  9/ 12 1017.1R
THOMAS POINT MD  1800   81 81  170/ 14/ 15   N/A
GOOSES REEF MD   1800   81 81  160/ 16/ 19 1016.2    2/ 3
COVE POINT MD    1748   79     170/ 15/ 16 1016.8F
SOLOMONS ISLAND  1748   81 81  130/ 14/ 15   N/A
BISHOPS HEAD MD  1748   80 83  160/ 12/ 13 1016.5F
PINEY POINT MD   1748          150/ 15/ 16   N/A
POTOMAC MD       1800   80 81  150/ 12/ 14 1015.5    1/ 3
CAMBRIDGE MD     1748   84 81              1017.0F
LEWISETTA VA     1748   84 84  180/  7/  8 1015.9F
RAPPAHANNOCK LGT 1748          210/  6/  7 1017.4F
STINGRAY PT      1800   82 82  190/ 10/ 12 1016.8    1/ 2
YORK RVR RNG VA  1748   81     140/ 13/ 14 1017.0F
YORKTOWN VA      1748   87     170/  5/  8 1016.1F
JAMESTOWN VA     1800      84  180/  4/  6   N/A     0
DOMINION TERM VA 1748   84      80/  6/  8 1016.7F
KIPTOPEKE VA     1748      81  160/ 12/ 13   N/A
CHES BAY BRIDGE  1748   82 80  120/  9/ 13 1016.7S
CAPE HENRY VA    1748   81     130/ 11/ 15   N/A
WILLOUBY STN VA  1742   82      80/  7/  8 1016.8S
S CRANEY ISL VA  1748   88     180/  7/  9 1016.5S
CAPE HENRY BUOY  1800      80                N/A     2/ 8
1ST LANDING BUOY 1800   81 81              1016.6    2/ 3
64NM E OF VA BCH 1750   77 80  120/  4/  6 1018.2F   2/ 7   2/ 7
DUCK PIER NC     1748   80 78  120/ 11/ 11 1016.9F
44100 DUCK FRF   1705      80                N/A     2/ 8
44056 DUCK FRF   1800      80                N/A     2/ 8
OREGON INLET NC  1742   80 84  100/  6/  9 1017.5F
HATTERAS NC      1748   81 84  130/  6/  8 1017.6F
DIAMOND SHLS NC  1750   81 84   20/  2/  4 1017.5F   2/ 7   2/ 7
CAPE LOOKOUT NC  1800   82     130/  7/  8 1016.8F
$$




USA.gov is the U.S. government's official web portal to all federal, state and local government web resources and services.